DBMAR EGPB-EDDH

Flight info

Callsign DBMAR
Flight time 1h 21m
Altitude 45000
Route SUM DCT PBM01 DCT EVTEP DCT INPET DCT RUDOK DCT ATNAK DCT AMRAM DCT TUSKA DCT XW143 DCT RIBSO DCT DH620
Aircraft C750/M-SBDE3FGHRWXY/S

Departure

Time 2026-05-07 16:54
Airport Sumburgh Airport (EGPB)

Arrival

Time 2026-05-07 18:16
Airport Hamburg Helmut Schmidt Airport (EDDH)
Time Latitude Longitude Altitude Speed Heading
2026-05-07 16:29 59.87716 -1.28708 40 ft 0 kts 124°
2026-05-07 16:45 59.87714 -1.28701 40 ft 1 kts 125°
2026-05-07 16:46 59.87708 -1.28689 40 ft 1 kts 139°
2026-05-07 16:46 59.87697 -1.28682 40 ft 2 kts 175°
2026-05-07 16:46 59.87692 -1.28693 40 ft 2 kts 233°
2026-05-07 16:46 59.87683 -1.28714 40 ft 3 kts 232°
2026-05-07 16:47 59.87667 -1.28757 40 ft 5 kts 232°
2026-05-07 16:47 59.87641 -1.28823 40 ft 7 kts 232°
2026-05-07 16:47 59.87608 -1.28911 40 ft 7 kts 244°
2026-05-07 16:47 59.87621 -1.28989 40 ft 6 kts 318°
2026-05-07 16:48 59.87659 -1.29042 40 ft 7 kts 324°
2026-05-07 16:48 59.87716 -1.29132 40 ft 14 kts 322°
2026-05-07 16:48 59.87813 -1.29269 40 ft 20 kts 322°
2026-05-07 16:48 59.87902 -1.29407 40 ft 12 kts 322°
2026-05-07 16:49 59.87904 -1.29494 40 ft 4 kts 228°
2026-05-07 16:49 59.87877 -1.29545 40 ft 7 kts 233°
2026-05-07 16:49 59.87901 -1.29633 40 ft 9 kts 330°
2026-05-07 16:49 59.87963 -1.29713 40 ft 11 kts 327°
2026-05-07 16:50 59.88029 -1.29803 40 ft 11 kts 325°
2026-05-07 16:50 59.88079 -1.29871 42 ft 8 kts 324°
2026-05-07 16:50 59.88104 -1.29917 43 ft 4 kts 307°
2026-05-07 16:50 59.88112 -1.29969 43 ft 5 kts 274°
2026-05-07 16:51 59.88108 -1.30052 42 ft 8 kts 263°
2026-05-07 16:51 59.88101 -1.30172 41 ft 9 kts 263°
2026-05-07 16:51 59.88094 -1.30293 42 ft 9 kts 263°
2026-05-07 16:51 59.88087 -1.30417 42 ft 9 kts 263°
2026-05-07 16:52 59.88085 -1.30546 42 ft 10 kts 277°
2026-05-07 16:52 59.88087 -1.30666 42 ft 2 kts 227°
2026-05-07 16:52 59.88083 -1.30669 42 ft 0 kts 206°
2026-05-07 16:52 59.88075 -1.30664 42 ft 0 kts 145°
2026-05-07 16:53 59.88075 -1.30652 42 ft 1 kts 78°
2026-05-07 16:53 59.88075 -1.30646 42 ft 0 kts 84°
2026-05-07 16:54 59.88098 -1.30195 41 ft 80 kts 87°
2026-05-07 16:54 59.88203 -1.28634 242 ft 129 kts 88°
2026-05-07 16:54 59.88381 -1.26805 728 ft 143 kts 92°
2026-05-07 16:55 59.88401 -1.24689 969 ft 162 kts 108°
2026-05-07 16:55 59.88342 -1.22284 1455 ft 187 kts 97°
2026-05-07 16:55 59.88522 -1.19558 2031 ft 209 kts 90°
2026-05-07 16:55 59.88780 -1.16579 2602 ft 227 kts 89°
2026-05-07 16:56 59.88885 -1.13380 3105 ft 236 kts 107°
2026-05-07 16:56 59.88303 -1.10316 3636 ft 240 kts 123°
2026-05-07 16:56 59.86809 -1.04101 4844 ft 257 kts 121°
2026-05-07 16:57 59.86057 -1.00915 5881 ft 254 kts 120°
2026-05-07 16:57 59.85290 -0.97709 6782 ft 258 kts 122°
2026-05-07 16:57 59.84513 -0.94490 7561 ft 267 kts 122°
2026-05-07 16:57 59.83697 -0.91097 8377 ft 276 kts 121°
2026-05-07 16:58 59.82760 -0.87738 9124 ft 280 kts 133°
2026-05-07 16:58 59.81471 -0.84815 9925 ft 284 kts 137°
2026-05-07 16:58 59.80128 -0.81801 10334 ft 303 kts 137°
2026-05-07 16:58 59.78690 -0.78483 10440 ft 331 kts 135°
2026-05-07 16:59 59.77150 -0.74908 10559 ft 349 kts 135°
2026-05-07 16:59 59.75567 -0.71260 11320 ft 348 kts 136°
2026-05-07 16:59 59.73969 -0.67618 12011 ft 352 kts 136°
2026-05-07 16:59 59.72354 -0.63947 12683 ft 355 kts 135°
2026-05-07 17:00 59.70726 -0.60231 13361 ft 359 kts 136°
2026-05-07 17:00 59.69080 -0.56478 13989 ft 362 kts 136°
2026-05-07 17:00 59.67415 -0.52698 14553 ft 366 kts 136°
2026-05-07 17:00 59.65731 -0.48884 15132 ft 370 kts 136°
2026-05-07 17:01 59.64032 -0.45036 15704 ft 374 kts 136°
2026-05-07 17:01 59.62312 -0.41146 16291 ft 378 kts 136°
2026-05-07 17:01 59.60573 -0.37222 16889 ft 382 kts 136°
2026-05-07 17:01 59.58817 -0.33266 17514 ft 384 kts 136°
2026-05-07 17:02 59.57042 -0.29275 18142 ft 388 kts 136°
2026-05-07 17:02 59.55248 -0.25249 18689 ft 393 kts 137°
2026-05-07 17:02 59.53437 -0.21191 19233 ft 397 kts 137°
2026-05-07 17:02 59.51625 -0.17137 19771 ft 401 kts 137°
2026-05-07 17:03 59.49771 -0.12998 20327 ft 405 kts 137°
2026-05-07 17:03 59.47893 -0.08813 20878 ft 409 kts 137°
2026-05-07 17:03 59.45996 -0.04593 21415 ft 414 kts 137°
2026-05-07 17:03 59.44080 -0.00340 21929 ft 418 kts 137°
2026-05-07 17:04 59.42768 0.02569 22227 ft 423 kts 137°
2026-05-07 17:04 59.40806 0.06912 22754 ft 427 kts 137°
2026-05-07 17:04 59.38822 0.11298 23270 ft 432 kts 138°
2026-05-07 17:04 59.36815 0.15723 23747 ft 436 kts 138°
2026-05-07 17:05 59.34793 0.20173 24223 ft 439 kts 138°
2026-05-07 17:05 59.32782 0.24594 24693 ft 441 kts 138°
2026-05-07 17:05 59.30731 0.29089 25180 ft 443 kts 138°
2026-05-07 17:05 59.28673 0.33595 25700 ft 445 kts 138°
2026-05-07 17:06 59.26599 0.38120 26163 ft 448 kts 138°
2026-05-07 17:06 59.24511 0.42669 26639 ft 451 kts 138°
2026-05-07 17:06 59.22406 0.47251 27114 ft 454 kts 138°
2026-05-07 17:06 59.20287 0.51850 27601 ft 457 kts 138°
2026-05-07 17:07 59.18155 0.56467 28076 ft 460 kts 138°
2026-05-07 17:07 59.16006 0.61114 28559 ft 463 kts 139°
2026-05-07 17:07 59.13841 0.65786 28984 ft 467 kts 138°
2026-05-07 17:07 59.11651 0.70497 29363 ft 471 kts 138°
2026-05-07 17:08 59.09445 0.75242 29837 ft 474 kts 138°
2026-05-07 17:08 59.07251 0.79950 30256 ft 477 kts 138°
2026-05-07 17:08 59.05016 0.84731 30651 ft 479 kts 138°
2026-05-07 17:08 59.02764 0.89538 31060 ft 481 kts 138°
2026-05-07 17:09 59.00531 0.94306 31807 ft 474 kts 138°
2026-05-07 17:09 58.98316 0.99022 32436 ft 472 kts 138°
2026-05-07 17:09 58.96103 1.03708 33011 ft 470 kts 138°
2026-05-07 17:09 58.93895 1.08379 33601 ft 469 kts 139°
2026-05-07 17:10 58.91695 1.13036 34166 ft 467 kts 139°
2026-05-07 17:10 58.89501 1.17663 34630 ft 467 kts 139°
2026-05-07 17:10 58.87300 1.22290 35069 ft 467 kts 138°
2026-05-07 17:10 58.85106 1.26900 35511 ft 467 kts 138°
2026-05-07 17:11 58.82902 1.31522 35894 ft 468 kts 138°
2026-05-07 17:11 58.80692 1.36145 36346 ft 468 kts 138°
2026-05-07 17:11 58.78484 1.40758 36820 ft 468 kts 137°
2026-05-07 17:11 58.76275 1.45359 37288 ft 468 kts 137°
2026-05-07 17:12 58.74091 1.49902 37761 ft 468 kts 137°
2026-05-07 17:12 58.71882 1.54485 38252 ft 467 kts 137°
2026-05-07 17:12 58.69565 1.58842 38685 ft 465 kts 141°
2026-05-07 17:12 58.67175 1.63030 39064 ft 464 kts 142°
2026-05-07 17:13 58.64781 1.67201 39423 ft 465 kts 142°
2026-05-07 17:13 58.62407 1.71422 39793 ft 465 kts 141°
2026-05-07 17:13 58.60034 1.75656 40174 ft 465 kts 141°
2026-05-07 17:13 58.57648 1.79853 40549 ft 465 kts 141°
2026-05-07 17:14 58.55250 1.84039 40928 ft 466 kts 141°
2026-05-07 17:14 58.52859 1.88234 41295 ft 466 kts 141°
2026-05-07 17:14 58.50462 1.92448 41650 ft 467 kts 141°
2026-05-07 17:14 58.48065 1.96640 42030 ft 467 kts 141°
2026-05-07 17:15 58.45659 2.00828 42400 ft 467 kts 141°
2026-05-07 17:15 58.43258 2.05006 42825 ft 466 kts 141°
2026-05-07 17:15 58.40892 2.09124 43189 ft 467 kts 141°
2026-05-07 17:15 58.38488 2.13292 43536 ft 467 kts 141°
2026-05-07 17:16 58.36081 2.17458 43892 ft 467 kts 141°
2026-05-07 17:16 58.33673 2.21618 44250 ft 468 kts 141°
2026-05-07 17:16 58.31263 2.25774 44595 ft 468 kts 141°
2026-05-07 17:16 58.28846 2.29934 44911 ft 468 kts 141°
2026-05-07 17:17 58.26425 2.34091 45071 ft 472 kts 141°
2026-05-07 17:17 58.23970 2.38298 45064 ft 479 kts 141°
2026-05-07 17:17 58.18972 2.46919 45069 ft 493 kts 138°
2026-05-07 17:18 58.14427 2.56922 45086 ft 507 kts 132°
2026-05-07 17:18 58.09882 2.67143 45084 ft 507 kts 134°
2026-05-07 17:19 58.05285 2.77290 45094 ft 508 kts 133°
2026-05-07 17:19 58.00718 2.87466 45093 ft 508 kts 133°
2026-05-07 17:20 57.96144 2.97500 45097 ft 508 kts 133°
2026-05-07 17:20 57.91548 3.07622 45088 ft 508 kts 133°
2026-05-07 17:21 57.86931 3.17690 45101 ft 506 kts 133°
2026-05-07 17:21 57.82341 3.27694 45094 ft 505 kts 133°
2026-05-07 17:22 57.77737 3.37660 45095 ft 506 kts 134°
2026-05-07 17:22 57.73127 3.47611 45096 ft 506 kts 134°
2026-05-07 17:23 57.68506 3.57538 45101 ft 506 kts 134°
2026-05-07 17:23 57.63897 3.67399 45106 ft 507 kts 134°
2026-05-07 17:24 57.59247 3.77308 45094 ft 507 kts 134°
2026-05-07 17:24 57.54596 3.87175 45108 ft 506 kts 134°
2026-05-07 17:25 57.49938 3.97016 45108 ft 506 kts 134°
2026-05-07 17:25 57.45275 4.06826 45111 ft 506 kts 134°
2026-05-07 17:26 57.40604 4.16612 45114 ft 507 kts 134°
2026-05-07 17:26 57.35918 4.26387 45108 ft 508 kts 134°
2026-05-07 17:27 57.31223 4.36143 45107 ft 507 kts 134°
2026-05-07 17:27 57.26556 4.45800 45113 ft 507 kts 134°
2026-05-07 17:28 57.21841 4.55514 45118 ft 510 kts 134°
2026-05-07 17:28 57.17106 4.65233 45123 ft 509 kts 134°
2026-05-07 17:29 57.12368 4.74914 45115 ft 509 kts 134°
2026-05-07 17:29 57.07614 4.84588 45114 ft 510 kts 135°
2026-05-07 17:30 57.02854 4.94235 45121 ft 509 kts 135°
2026-05-07 17:30 56.97909 5.03472 45120 ft 505 kts 141°
2026-05-07 17:31 56.92561 5.11856 45126 ft 506 kts 142°
2026-05-07 17:31 56.87310 5.20335 45133 ft 506 kts 141°
2026-05-07 17:32 56.81986 5.28740 45126 ft 506 kts 142°
2026-05-07 17:32 56.77535 5.35803 45126 ft 506 kts 141°
2026-05-07 17:33 56.71346 5.45564 45112 ft 506 kts 142°
2026-05-07 17:33 56.66023 5.53927 45112 ft 505 kts 142°
2026-05-07 17:34 56.60691 5.62268 45112 ft 505 kts 142°
2026-05-07 17:34 56.55359 5.70576 45112 ft 505 kts 142°
2026-05-07 17:35 56.50058 5.78807 45105 ft 505 kts 142°
2026-05-07 17:35 56.44713 5.87072 45122 ft 505 kts 142°
2026-05-07 17:36 56.39365 5.95312 45123 ft 504 kts 142°
2026-05-07 17:36 56.34021 6.03512 45116 ft 504 kts 142°
2026-05-07 17:37 56.28675 6.11685 45116 ft 504 kts 142°
2026-05-07 17:37 56.23323 6.19837 45123 ft 504 kts 142°
2026-05-07 17:38 56.17965 6.27967 45120 ft 504 kts 142°
2026-05-07 17:38 56.12602 6.36072 45124 ft 503 kts 142°
2026-05-07 17:39 56.07236 6.44153 45120 ft 504 kts 142°
2026-05-07 17:39 56.01866 6.52208 45116 ft 504 kts 142°
2026-05-07 17:40 55.96494 6.60238 45120 ft 504 kts 142°
2026-05-07 17:40 55.91003 6.67986 45126 ft 503 kts 145°
2026-05-07 17:41 55.85418 6.75505 45129 ft 502 kts 145°
2026-05-07 17:41 55.79851 6.83025 45122 ft 502 kts 145°
2026-05-07 17:42 55.74303 6.90454 45124 ft 502 kts 145°
2026-05-07 17:42 55.68723 6.97922 45119 ft 502 kts 145°
2026-05-07 17:43 55.63135 7.05360 45120 ft 502 kts 146°
2026-05-07 17:43 55.57549 7.12776 45118 ft 502 kts 146°
2026-05-07 17:44 55.51955 7.20171 45120 ft 502 kts 146°
2026-05-07 17:44 55.46351 7.27556 45126 ft 503 kts 146°
2026-05-07 17:45 55.40718 7.34949 45133 ft 504 kts 146°
2026-05-07 17:45 55.35090 7.42311 45131 ft 504 kts 146°
2026-05-07 17:46 55.29456 7.49653 45120 ft 504 kts 146°
2026-05-07 17:46 55.23824 7.56965 45122 ft 504 kts 146°
2026-05-07 17:47 55.18175 7.64223 45121 ft 504 kts 146°
2026-05-07 17:47 55.12589 7.71475 45111 ft 495 kts 146°
2026-05-07 17:48 55.09870 7.74980 45085 ft 475 kts 146°
2026-05-07 17:48 55.07245 7.78342 44636 ft 464 kts 146°
2026-05-07 17:48 55.04640 7.81676 43702 ft 464 kts 146°
2026-05-07 17:48 55.02042 7.85010 42813 ft 463 kts 146°
2026-05-07 17:49 54.99450 7.88334 41959 ft 462 kts 146°
2026-05-07 17:49 54.96840 7.91664 41539 ft 467 kts 146°
2026-05-07 17:49 54.94225 7.94997 41316 ft 464 kts 145°
2026-05-07 17:49 54.91632 7.98302 41054 ft 462 kts 145°
2026-05-07 17:50 54.89033 8.01606 40702 ft 462 kts 145°
2026-05-07 17:50 54.86442 8.04893 40354 ft 461 kts 145°
2026-05-07 17:50 54.83857 8.08168 39999 ft 459 kts 145°
2026-05-07 17:50 54.82148 8.10331 39773 ft 459 kts 145°
2026-05-07 17:51 54.78729 8.14650 39315 ft 458 kts 145°
2026-05-07 17:51 54.76156 8.17894 38982 ft 457 kts 145°
2026-05-07 17:51 54.73588 8.21128 38621 ft 457 kts 145°
2026-05-07 17:51 54.71015 8.24363 38197 ft 457 kts 145°
2026-05-07 17:52 54.69277 8.26543 37920 ft 457 kts 144°
2026-05-07 17:52 54.66705 8.29767 37514 ft 457 kts 144°
2026-05-07 17:52 54.64162 8.32950 37122 ft 457 kts 144°
2026-05-07 17:52 54.61559 8.36202 36729 ft 455 kts 144°
2026-05-07 17:53 54.59025 8.39364 36351 ft 455 kts 143°
2026-05-07 17:53 54.56458 8.42562 35974 ft 456 kts 143°
2026-05-07 17:53 54.53886 8.45760 35599 ft 456 kts 143°
2026-05-07 17:53 54.51314 8.48954 35232 ft 455 kts 143°
2026-05-07 17:54 54.48746 8.52138 34867 ft 455 kts 143°
2026-05-07 17:54 54.46177 8.55317 34510 ft 455 kts 142°
2026-05-07 17:54 54.43610 8.58488 34164 ft 453 kts 142°
2026-05-07 17:54 54.41058 8.61637 33761 ft 452 kts 142°
2026-05-07 17:55 54.38505 8.64786 33348 ft 453 kts 142°
2026-05-07 17:55 54.35940 8.67941 32947 ft 454 kts 142°
2026-05-07 17:55 54.33365 8.71103 32547 ft 455 kts 142°
2026-05-07 17:55 54.30786 8.74264 32157 ft 456 kts 142°
2026-05-07 17:56 54.28203 8.77427 31772 ft 457 kts 142°
2026-05-07 17:56 54.25594 8.80616 31389 ft 458 kts 143°
2026-05-07 17:56 54.23014 8.83764 31011 ft 459 kts 143°
2026-05-07 17:56 54.20403 8.86946 30457 ft 464 kts 143°
2026-05-07 17:57 54.17749 8.90007 29598 ft 458 kts 150°
2026-05-07 17:57 54.15805 8.91396 28995 ft 455 kts 159°
2026-05-07 17:57 54.11915 8.94028 27894 ft 445 kts 157°
2026-05-07 17:57 54.08911 8.95168 27012 ft 443 kts 173°
2026-05-07 17:58 54.05843 8.95299 26242 ft 438 kts 180°
2026-05-07 17:58 54.02817 8.95083 25508 ft 433 kts 183°
2026-05-07 17:58 53.99811 8.94768 24379 ft 433 kts 184°
2026-05-07 17:58 53.96823 8.94438 23132 ft 427 kts 184°
2026-05-07 17:59 53.93872 8.94125 21789 ft 421 kts 184°
2026-05-07 17:59 53.90967 8.93841 20503 ft 415 kts 184°
2026-05-07 17:59 53.88150 8.93582 19289 ft 408 kts 184°
2026-05-07 17:59 53.85331 8.93333 18059 ft 401 kts 184°
2026-05-07 18:00 53.82578 8.93349 16674 ft 395 kts 173°
2026-05-07 18:00 53.80016 8.94956 15301 ft 394 kts 149°
2026-05-07 18:00 53.78047 8.98108 14017 ft 390 kts 128°
2026-05-07 18:00 53.76720 9.02057 12684 ft 384 kts 112°
2026-05-07 18:01 53.76126 9.06390 11638 ft 373 kts 95°
2026-05-07 18:01 53.76241 9.10608 11231 ft 347 kts 80°
2026-05-07 18:01 53.76930 9.14342 11034 ft 319 kts 68°
2026-05-07 18:01 53.77731 9.17669 10880 ft 295 kts 68°
2026-05-07 18:02 53.79124 9.24124 9163 ft 284 kts 70°
2026-05-07 18:02 53.79793 9.27226 8802 ft 275 kts 70°
2026-05-07 18:02 53.80456 9.30233 8540 ft 272 kts 70°
2026-05-07 18:03 53.81077 9.33249 8254 ft 272 kts 76°
2026-05-07 18:03 53.80964 9.36412 7857 ft 274 kts 109°
2026-05-07 18:03 53.79883 9.39024 7548 ft 271 kts 132°
2026-05-07 18:03 53.78548 9.41238 7343 ft 268 kts 133°
2026-05-07 18:04 53.77349 9.43644 7127 ft 267 kts 126°
2026-05-07 18:04 53.76048 9.45882 6820 ft 268 kts 146°
2026-05-07 18:04 53.74307 9.46794 6498 ft 260 kts 173°
2026-05-07 18:04 53.72561 9.46322 6165 ft 253 kts 200°
2026-05-07 18:05 53.71074 9.44840 5907 ft 245 kts 211°
2026-05-07 18:05 53.69553 9.43660 5570 ft 240 kts 186°
2026-05-07 18:05 53.67931 9.43847 5290 ft 233 kts 166°
2026-05-07 18:05 53.66362 9.44486 5070 ft 231 kts 164°
2026-05-07 18:06 53.64804 9.45122 4840 ft 229 kts 164°
2026-05-07 18:06 53.63253 9.45740 4596 ft 228 kts 163°
2026-05-07 18:06 53.61704 9.46355 4343 ft 229 kts 164°
2026-05-07 18:06 53.60147 9.46999 4102 ft 230 kts 164°
2026-05-07 18:07 53.58618 9.47628 4087 ft 224 kts 164°
2026-05-07 18:07 53.57099 9.48250 4091 ft 225 kts 163°
2026-05-07 18:07 53.55580 9.48919 4076 ft 225 kts 157°
2026-05-07 18:07 53.54218 9.50194 4096 ft 225 kts 144°
2026-05-07 18:08 53.52934 9.51657 4100 ft 225 kts 141°
2026-05-07 18:08 53.51987 9.53742 4033 ft 219 kts 117°
2026-05-07 18:08 53.51331 9.56020 3518 ft 223 kts 114°
2026-05-07 18:08 53.50654 9.58456 3094 ft 229 kts 114°
2026-05-07 18:09 53.50002 9.60786 3100 ft 215 kts 114°
2026-05-07 18:09 53.49700 9.63195 3018 ft 214 kts 84°
2026-05-07 18:09 53.50050 9.65519 3104 ft 198 kts 73°
2026-05-07 18:09 53.50443 9.67713 3104 ft 196 kts 74°
2026-05-07 18:10 53.50831 9.69903 3109 ft 193 kts 74°
2026-05-07 18:10 53.51198 9.71985 3092 ft 179 kts 74°
2026-05-07 18:10 53.51544 9.73923 3089 ft 169 kts 74°
2026-05-07 18:10 53.51876 9.75767 3084 ft 158 kts 73°
2026-05-07 18:11 53.52408 9.77260 3014 ft 145 kts 52°
2026-05-07 18:11 53.52818 9.78119 2919 ft 142 kts 54°
2026-05-07 18:11 53.53622 9.79808 2648 ft 130 kts 53°
2026-05-07 18:11 53.54187 9.80948 2474 ft 125 kts 53°
2026-05-07 18:12 53.54740 9.82066 2310 ft 123 kts 52°
2026-05-07 18:12 53.55279 9.83155 2149 ft 123 kts 53°
2026-05-07 18:12 53.55827 9.84263 1988 ft 124 kts 53°
2026-05-07 18:12 53.56383 9.85388 1819 ft 125 kts 53°
2026-05-07 18:13 53.56932 9.86496 1643 ft 119 kts 52°
2026-05-07 18:13 53.57437 9.87514 1478 ft 109 kts 52°
2026-05-07 18:13 53.57912 9.88473 1330 ft 105 kts 53°
2026-05-07 18:13 53.58371 9.89401 1195 ft 102 kts 52°
2026-05-07 18:14 53.58828 9.90325 1017 ft 100 kts 52°
2026-05-07 18:14 53.59247 9.91168 908 ft 92 kts 52°
2026-05-07 18:14 53.59665 9.92016 771 ft 97 kts 52°
2026-05-07 18:14 53.60093 9.92894 632 ft 97 kts 50°
2026-05-07 18:15 53.60525 9.93735 485 ft 95 kts 50°
2026-05-07 18:15 53.60944 9.94593 398 ft 96 kts 51°
2026-05-07 18:15 53.61385 9.95501 246 ft 100 kts 49°
2026-05-07 18:15 53.61819 9.96369 120 ft 92 kts 49°
2026-05-07 18:16 53.62213 9.97157 42 ft 83 kts 50°
2026-05-07 18:16 53.62558 9.97854 37 ft 66 kts 51°
2026-05-07 18:16 53.62756 9.98305 39 ft 17 kts 97°
2026-05-07 18:16 53.62713 9.98398 41 ft 8 kts 141°
2026-05-07 18:17 53.62685 9.98435 43 ft 3 kts 139°
2026-05-07 18:17 53.62681 9.98441 43 ft 0 kts 139°
2026-05-07 18:19 53.62663 9.98467 43 ft 7 kts 139°
2026-05-07 18:19 53.62608 9.98536 43 ft 11 kts 151°
2026-05-07 18:19 53.62529 9.98611 43 ft 16 kts 149°
2026-05-07 18:19 53.62523 9.98741 43 ft 13 kts 78°
2026-05-07 18:20 53.62541 9.98913 43 ft 17 kts 79°
2026-05-07 18:20 53.62562 9.99107 43 ft 15 kts 79°
2026-05-07 18:20 53.62579 9.99256 43 ft 11 kts 79°
2026-05-07 18:20 53.62580 9.99333 43 ft 2 kts 128°
2026-05-07 18:21 53.62569 9.99339 43 ft 3 kts 176°
2026-05-07 18:21 53.62535 9.99347 43 ft 6 kts 164°
2026-05-07 18:21 53.62524 9.99399 43 ft 1 kts 59°
2026-05-07 18:21 53.62526 9.99402 43 ft 0 kts 47°
2026-05-07 18:22 53.62528 9.99402 43 ft 1 kts 18°
2026-05-07 18:22 53.62529 9.99403 43 ft 0 kts 17°